Weather History for KPIB - December, 2012

Change the Weather History Date:

Tuesday, December 4, 2012

  Actual Average Record
Temperature  
Mean Temperature 66 °F -  
Max Temperature 71 °F 61 °F 77 °F (1998)
Min Temperature 60 °F 41 °F 26 °F (2006)
Growing Degree Days 16 (Base 50)    
Moisture  
Dew Point 62 °F    
Average Humidity 89    
Maximum Humidity 94    
Minimum Humidity 73    
Precipitation  
Precipitation 0.05 in - - ()
Sea Level Pressure  
Sea Level Pressure 30.20 in    
Wind  
Wind Speed 5 mph (SSE)    
Max Wind Speed 14 mph    
Max Gust Speed 20 mph    
Visibility 6 miles    
Events Thunderstorm    
Averages and records for this station are not official NWS values.
T = Trace of Precipitation, MM = Missing Value Source: NWS Daily Summary

Daily Weather History Graph

Daily Weather History Graph

Search for Another Location

Airport or City:

Trip Planner

Search our weather history database for the weather conditions in past years. The results will help you decide how hot, cold, wet, or windy it might be!

Date:

Astronomy

Dec. 04, 2012 Rise Set
Actual Time 6:41 AM CST 4:53 PM CST
Civil Twilight 6:15 AM CST 5:20 PM CST
Nautical Twilight 5:44 AM CST 5:50 PM CST
Astronomical Twilight 5:15 AM CST 6:20 PM CST
Moon 10:26 PM CST (12/4) 10:48 AM CST (12/4)
Length of Visible Light 11h 05m
Length of Day
10h 12m
Waning Gibbous, 69% of the Moon is Illuminated
Dec 4
Waning Gibbous
Dec 6
Last Quarter
Dec 13
New
Dec 19
First Quarter
Dec 28
Full

Hourly Weather History & Observations

Time (CST) Temp. Dew Point Humidity Pressure Visibility Wind Dir Wind Speed Gust Speed Precip Events Conditions
12:15 AM 62.6 °F 60.8 °F 94% 30.21 in 5.0 mi South 4.6 mph - N/A   Overcast
12:35 AM 62.6 °F 60.8 °F 94% 30.20 in 1.0 mi South 3.5 mph - N/A   Overcast
1:15 AM 60.8 °F 59.0 °F 94% 30.20 in 0.8 mi ESE 4.6 mph - N/A   Overcast
1:35 AM 62.6 °F 60.8 °F 94% 30.19 in 1.5 mi SSE 3.5 mph - N/A   Overcast
1:55 AM 62.6 °F 60.8 °F 94% 30.19 in 1.5 mi SSE 3.5 mph - N/A   Overcast
2:55 AM 64.4 °F 62.6 °F 94% 30.19 in 4.0 mi SSE 5.8 mph - N/A   Overcast
3:15 AM 64.4 °F 62.6 °F 94% 30.19 in 4.0 mi SSE 6.9 mph - N/A   Overcast
3:35 AM 64.4 °F 62.6 °F 94% 30.19 in 5.0 mi SSE 5.8 mph - N/A   Overcast
3:55 AM 64.4 °F 62.6 °F 94% 30.19 in 5.0 mi SSE 5.8 mph - N/A   Overcast
4:16 AM 64.4 °F 62.6 °F 94% 30.18 in 7.0 mi SE 6.9 mph - N/A   Overcast
4:35 AM 64.4 °F 62.6 °F 94% 30.19 in 6.0 mi SE 5.8 mph - N/A   Overcast
4:55 AM 64.4 °F 62.6 °F 94% 30.19 in 6.0 mi SSE 6.9 mph - N/A   Overcast
5:15 AM 64.4 °F 62.6 °F 94% 30.19 in 7.0 mi SE 4.6 mph - N/A   Overcast
5:35 AM 64.4 °F 62.6 °F 94% 30.19 in 7.0 mi SE 4.6 mph - N/A   Overcast
5:55 AM 64.4 °F 62.6 °F 94% 30.19 in 7.0 mi SE 5.8 mph - N/A   Overcast
6:15 AM 64.4 °F 62.6 °F 94% 30.21 in 7.0 mi SE 5.8 mph - 0.01 in   Overcast
6:35 AM 64.4 °F 62.6 °F 94% 30.22 in 6.0 mi Calm Calm - 0.01 in   Overcast
6:55 AM 64.4 °F 62.6 °F 94% 30.23 in 3.0 mi Calm Calm - 0.03 in   Overcast
7:15 AM 64.4 °F 62.6 °F 94% 30.24 in 4.0 mi SE 3.5 mph - 0.01 in   Overcast
7:35 AM 64.4 °F 62.6 °F 94% 30.24 in 2.5 mi Calm Calm - 0.01 in   Overcast
7:55 AM 64.4 °F 62.6 °F 94% 30.25 in 1.8 mi SSE 3.5 mph - 0.01 in   Overcast
8:16 AM 64.4 °F 62.6 °F 94% 30.25 in 3.0 mi SSE 3.5 mph - N/A   Scattered Clouds
8:35 AM 66.2 °F 62.6 °F 88% 30.26 in 3.0 mi SE 4.6 mph - N/A   Scattered Clouds
8:55 AM 66.2 °F 64.4 °F 94% 30.26 in 4.0 mi SE 8.1 mph - N/A   Mostly Cloudy
9:15 AM 68.0 °F 64.4 °F 88% 30.25 in 8.0 mi SSE 8.1 mph - 0.01 in   Unknown
9:35 AM 68.0 °F 64.4 °F 88% 30.25 in 10.0 mi SSE 10.4 mph - 0.01 in   Mostly Cloudy
9:55 AM 69.8 °F 64.4 °F 83% 30.25 in 10.0 mi SSE 11.5 mph - 0.01 in   Scattered Clouds
10:15 AM 69.8 °F 64.4 °F 83% 30.25 in 10.0 mi SSE 6.9 mph - N/A   Mostly Cloudy
10:35 AM 69.8 °F 64.4 °F 83% 30.26 in 10.0 mi South 9.2 mph - N/A   Mostly Cloudy
10:55 AM 71.6 °F 64.4 °F 78% 30.25 in 10.0 mi South 6.9 mph - N/A   Scattered Clouds
11:15 AM 71.6 °F 62.6 °F 73% 30.25 in 10.0 mi South 6.9 mph - N/A   Scattered Clouds
11:35 AM 71.6 °F 62.6 °F 73% 30.24 in 10.0 mi SSW 3.5 mph - N/A   Mostly Cloudy
11:55 AM 71.6 °F 64.4 °F 78% 30.24 in 3.0 mi SSW 13.8 mph 19.6 mph N/A   Overcast
12:15 PM 66.2 °F 62.6 °F 88% 30.22 in 10.0 mi SSW 5.8 mph - N/A Thunderstorm Thunderstorm
12:35 PM 66.2 °F 62.6 °F 88% 30.22 in 9.0 mi SSW 9.2 mph - N/A   Overcast
12:55 PM 66.2 °F 62.6 °F 88% 30.21 in 6.0 mi SSW 6.9 mph - N/A Thunderstorm Overcast
1:15 PM 66.2 °F 62.6 °F 88% 30.20 in 10.0 mi SSW 4.6 mph - N/A   Mostly Cloudy
1:35 PM 68.0 °F 64.4 °F 88% 30.19 in 10.0 mi SSW 3.5 mph - N/A   Clear
1:55 PM 69.8 °F 64.4 °F 83% 30.17 in 10.0 mi South 3.5 mph - N/A   Clear
2:15 PM 69.8 °F 64.4 °F 83% 30.17 in 10.0 mi SSE 6.9 mph - N/A   Clear
2:35 PM 69.8 °F 64.4 °F 83% 30.17 in 10.0 mi SSE 5.8 mph - N/A   Clear
2:55 PM 69.8 °F 64.4 °F 83% 30.17 in 10.0 mi SSE 6.9 mph - N/A   Partly Cloudy
3:15 PM 69.8 °F 64.4 °F 83% 30.16 in 10.0 mi SE 6.9 mph - N/A   Partly Cloudy
3:55 PM 68.0 °F 62.6 °F 83% 30.17 in 10.0 mi South 4.6 mph - N/A   Clear
4:15 PM 68.0 °F 62.6 °F 83% 30.17 in 10.0 mi SSE 6.9 mph - N/A   Clear
4:35 PM 66.2 °F 62.6 °F 88% 30.16 in 10.0 mi SSE 5.8 mph - N/A   Partly Cloudy
4:55 PM 66.2 °F 60.8 °F 83% 30.16 in 10.0 mi SSE 3.5 mph - N/A   Partly Cloudy
5:15 PM 64.4 °F 60.8 °F 88% 30.16 in 10.0 mi Calm Calm - N/A   Partly Cloudy
5:35 PM 64.4 °F 60.8 °F 88% 30.17 in 10.0 mi Calm Calm - N/A   Clear
5:55 PM 64.4 °F 60.8 °F 88% 30.19 in 10.0 mi NNW 4.6 mph - N/A   Clear
6:15 PM 64.4 °F 60.8 °F 88% 30.19 in 10.0 mi Calm Calm - N/A   Partly Cloudy
6:35 PM 64.4 °F 60.8 °F 88% 30.19 in 10.0 mi SE 5.8 mph - N/A   Scattered Clouds
6:55 PM 64.4 °F 60.8 °F 88% 30.19 in 10.0 mi Calm Calm - N/A   Partly Cloudy
7:15 PM 64.4 °F 60.8 °F 88% 30.19 in 10.0 mi East 3.5 mph - N/A   Clear
7:35 PM 62.6 °F 60.8 °F 94% 30.20 in 10.0 mi Calm Calm - N/A   Partly Cloudy
7:55 PM 62.6 °F 59.0 °F 88% 30.20 in 7.0 mi Calm Calm - N/A   Mostly Cloudy
8:15 PM 62.6 °F 59.0 °F 88% 30.20 in 4.0 mi Calm Calm - N/A   Partly Cloudy
8:35 PM - - N/A% 30.20 in 5.0 mi Calm Calm - N/A   Scattered Clouds
8:55 PM 62.6 °F 59.0 °F 88% 30.20 in 5.0 mi Calm Calm - N/A   Scattered Clouds
9:15 PM 60.8 °F 57.2 °F 88% 30.19 in 0.8 mi Calm Calm - N/A   Unknown
9:35 PM 62.6 °F 59.0 °F 88% 30.18 in 1.5 mi South 4.6 mph - N/A   Mostly Cloudy
9:55 PM 62.6 °F 60.8 °F 94% 30.18 in 5.0 mi Calm Calm - N/A   Partly Cloudy
10:15 PM 60.8 °F 57.2 °F 88% 30.17 in 1.5 mi Calm Calm - N/A   Clear
10:35 PM 60.8 °F 59.0 °F 94% 30.17 in 0.5 mi Calm Calm - N/A   Unknown
10:55 PM 60.8 °F 59.0 °F 94% 30.17 in 3.0 mi Calm Calm - N/A   Clear
11:15 PM 60.8 °F 57.2 °F 88% 30.17 in 5.0 mi Calm Calm - N/A   Mostly Cloudy
11:35 PM 62.6 °F 59.0 °F 88% 30.17 in 4.0 mi Calm Calm - N/A   Overcast
11:55 PM 62.6 °F 60.8 °F 94% 30.16 in 3.0 mi Calm Calm - N/A   Overcast